Ketchikan, AK

5:04 PM AKST on February 20, 2019 (GMT -0900)
Ketchikan International

Weather History for PAKT - January, 2019

Change the Weather History Date:

Tuesday, January 8, 2019

  Actual Average Record
Temperature  
Mean Temperature 30 °F -  
Max Temperature 36 °F 38 °F 52 °F (1958)
Min Temperature 26 °F 24 °F 2 °F (1953)
Degree Days  
Heating Degree Days 35    
Moisture  
Dew Point 27 °F    
Average Humidity 86    
Maximum Humidity 100    
Minimum Humidity 62    
Precipitation  
Precipitation 0.05 in - - ()
Sea Level Pressure  
Sea Level Pressure 30.00 in    
Wind  
Wind Speed 5 mph (West)    
Max Wind Speed 14 mph    
Max Gust Speed 21 mph    
Visibility 8 miles    
Events Snow    
Averages and records for this station are not official NWS values.
T = Trace of Precipitation, MM = Missing Value Source: NWS Daily Summary

Daily Weather History Graph

Daily Weather History Graph

Search for Another Location

Airport or City:

Astronomy

Jan. 08, 2019 Rise Set
Actual Time 8:10 AM AKST 3:36 PM AKST
Civil Twilight 7:25 AM AKST 4:21 PM AKST
Nautical Twilight 6:38 AM AKST 5:08 PM AKST
Astronomical Twilight 5:54 AM AKST 5:53 PM AKST
Moon 9:45 AM AKST (1/8) 6:32 PM AKST (1/8)
Length of Visible Light 8h 55m
Length of Day
7h 26m
Waxing Crescent, 7% of the Moon is Illuminated
Jan 8
Waxing Crescent
Jan 13
First Quarter
Jan 20
Full
Jan 27
Last Quarter
Feb 4
New

Hourly Weather History & Observations

Time (AKST) Temp. Windchill Dew Point Humidity Pressure Visibility Wind Dir Wind Speed Gust Speed Precip Events Conditions
12:53 AM 30.9 °F 25.2 °F 28.0 °F 89% 30.17 in 10.0 mi SSE 5.8 mph - N/A   Overcast
1:53 AM 30.9 °F 26.2 °F 28.0 °F 89% 30.17 in 10.0 mi South 4.6 mph - N/A   Overcast
2:07 AM 30.9 °F - 28.9 °F 92% 30.17 in 1.8 mi Calm Calm - 0.01 in Snow Light Snow
2:15 AM 30.9 °F 26.2 °F 28.9 °F 92% 30.17 in 0.8 mi ESE 4.6 mph - 0.02 in Snow Light Snow
2:26 AM 30.9 °F 26.2 °F 28.9 °F 92% 30.17 in 0.8 mi SE 4.6 mph - 0.04 in Snow Light Snow
2:33 AM 30.9 °F 25.2 °F 28.9 °F 92% 30.17 in 1.0 mi SE 5.8 mph - 0.04 in Snow Light Snow
2:45 AM 30.9 °F 27.5 °F 30.0 °F 96% 30.17 in 1.8 mi South 3.5 mph - 0.05 in Snow Light Snow
2:48 AM 30.2 °F - 30.2 °F 100% 30.17 in 3.0 mi Calm Calm - 0.05 in Snow Light Snow
2:53 AM 30.9 °F - 28.9 °F 92% 30.17 in 7.0 mi Calm Calm - 0.05 in   Overcast
3:53 AM 30.9 °F 26.2 °F 28.9 °F 92% 30.17 in 10.0 mi ESE 4.6 mph - N/A   Overcast
4:26 AM 30.9 °F 26.2 °F 28.9 °F 92% 30.16 in 1.8 mi SE 4.6 mph - 0.00 in Snow Light Snow
4:32 AM 30.9 °F 27.5 °F 28.9 °F 92% 30.16 in 2.0 mi SE 3.5 mph - 0.00 in Snow Light Snow
4:40 AM 30.9 °F 27.5 °F 28.9 °F 92% 30.15 in 4.0 mi SE 3.5 mph - 0.00 in Snow Light Snow
4:53 AM 30.9 °F 27.5 °F 30.0 °F 96% 30.16 in 4.0 mi ESE 3.5 mph - 0.00 in Snow Light Snow
5:11 AM 28.9 °F 23.9 °F 28.0 °F 96% 30.14 in 10.0 mi SE 4.6 mph - 0.00 in   Mostly Cloudy
5:53 AM 30.0 °F 26.5 °F 28.9 °F 96% 30.15 in 10.0 mi SE 3.5 mph - 0.00 in   Mostly Cloudy
6:07 AM 30.0 °F 25.2 °F 28.0 °F 92% 30.13 in 10.0 mi SE 4.6 mph - N/A   Mostly Cloudy
6:53 AM 27.0 °F 23.0 °F 25.0 °F 92% 30.12 in 10.0 mi West 3.5 mph - N/A   Scattered Clouds
7:53 AM 30.0 °F 24.1 °F 27.0 °F 88% 30.10 in 10.0 mi NW 5.8 mph - N/A   Scattered Clouds
8:53 AM 26.6 °F 21.2 °F 24.8 °F 93% 30.09 in 10.0 mi WNW 4.6 mph - N/A   Partly Cloudy
9:26 AM 28.9 °F 25.2 °F 27.0 °F 92% 30.07 in 10.0 mi NW 3.5 mph - N/A   Clear
9:53 AM 30.0 °F 24.1 °F 28.0 °F 92% 30.06 in 10.0 mi North 5.8 mph - N/A   Clear
10:53 AM 32.0 °F 23.0 °F 28.4 °F 87% 30.01 in 10.0 mi NW 11.5 mph - N/A   Partly Cloudy
11:53 AM 33.8 °F 25.8 °F 28.4 °F 81% 29.97 in 10.0 mi NW 10.4 mph - N/A   Clear
12:53 PM 33.8 °F 24.3 °F 28.4 °F 81% 29.92 in 10.0 mi WNW 13.8 mph - N/A   Clear
1:53 PM 33.8 °F 25.8 °F 28.4 °F 81% 29.87 in 10.0 mi WNW 10.4 mph - N/A   Clear
2:53 PM 33.8 °F 24.8 °F 26.6 °F 75% 29.83 in 10.0 mi WNW 12.7 mph 20.7 mph N/A   Clear
3:53 PM 33.8 °F 25.3 °F 26.6 °F 75% 29.79 in 10.0 mi NW 11.5 mph - N/A   Clear
4:53 PM 33.1 °F 25.5 °F 25.0 °F 72% 29.76 in 10.0 mi WNW 9.2 mph 18.4 mph N/A   Clear
5:53 PM 33.1 °F 24.9 °F 25.0 °F 72% 29.71 in 10.0 mi NW 10.4 mph - N/A   Clear
6:53 PM 33.1 °F 23.9 °F 24.1 °F 70% 29.69 in 10.0 mi NW 12.7 mph - N/A   Clear
7:53 PM 34.0 °F 27.2 °F 24.1 °F 67% 29.69 in 10.0 mi NW 8.1 mph - N/A   Clear
8:53 PM 33.1 °F 26.9 °F 26.1 °F 75% 29.66 in 10.0 mi NNW 6.9 mph - N/A   Clear
9:53 PM 33.1 °F 28.7 °F 27.0 °F 78% 29.62 in 10.0 mi NW 4.6 mph - N/A   Mostly Cloudy
10:53 PM 34.0 °F - 23.0 °F 64% 29.60 in 10.0 mi Calm Calm - N/A   Overcast
11:53 PM 36.0 °F 33.3 °F 24.1 °F 62% 29.60 in 10.0 mi Variable 3.5 mph - N/A   Overcast